Weather History for Ord, NE

Change the Weather History Date:

Monday, January 7, 2013

  Actual Average Record
Temperature  
Mean Temperature 31 °F 24 °F  
Max Temperature 49 °F 36 °F 63 °F (2003)
Min Temperature 12 °F 12 °F -8 °F (2004)
Degree Days  
Heating Degree Days 34    
Month to date heating degree days 281  
Since 1 July heating degree days 3010  
Cooling Degree Days 0    
Month to date cooling degree days 0  
Year to date cooling degree days 0  
Moisture  
Dew Point 19 °F    
Average Humidity 62    
Maximum Humidity 92    
Minimum Humidity 31    
Precipitation  
Precipitation 0.00 in 0.01 in 0.20 in (1912)
Month to date precipitation T 0.07  
Year to date precipitation T 0.07  
Sea Level Pressure  
Sea Level Pressure 30.00 in    
Wind  
Wind Speed 4 mph (NNE)    
Max Wind Speed 20 mph    
Max Gust Speed 25 mph    
Visibility 10 miles    
Events      
T = Trace of Precipitation, MM = Missing Value Source: NWS Daily Summary

Daily Weather History Graph

Daily Weather History Graph

Search for Another Location

Airport:

Trip Planner

Search our weather history database for the weather conditions in past years. The results will help you decide how hot, cold, wet, or windy it might be!

Date:

Astronomy

Jan. 07, 2013 Rise Set
Actual Time 8:02 AM CST 5:22 PM CST
Civil Twilight 7:31 AM CST 5:53 PM CST
Nautical Twilight 6:56 AM CST 6:27 PM CST
Astronomical Twilight 6:23 AM CST 7:01 PM CST
Moon 3:27 AM CST (1/7) 1:35 PM CST (1/7)
Length of Visible Light 10h 21m
Length of Day
9h 19m
Waning Crescent, 22% of the Moon is Illuminated
Jan 7
Waning Crescent
Jan 11
New
Jan 18
First Quarter
Jan 26
Full
Feb 3
Last Quarter

Hourly Weather History & Observations

Time (CST) Temp. Windchill Dew Point Humidity Pressure Visibility Wind Dir Wind Speed Gust Speed Precip Events Conditions
12:53 AM 28.0 °F 18.6 °F 23.0 °F 81% 29.99 in 10.0 mi South 10.4 mph 18.4 mph N/A   Clear
1:53 AM 28.9 °F 20.4 °F 23.0 °F 78% 29.96 in 10.0 mi SSW 9.2 mph 23.0 mph N/A   Clear
2:53 AM 25.0 °F 18.1 °F 21.0 °F 85% 30.01 in 10.0 mi West 5.8 mph - N/A   Clear
3:53 AM 24.1 °F 19.7 °F 21.0 °F 88% 29.98 in 10.0 mi SSE 3.5 mph - N/A   Clear
4:53 AM 24.8 °F - 21.2 °F 86% 29.91 in 10.0 mi Calm Calm - N/A   Clear
5:53 AM 21.0 °F - 18.0 °F 88% 29.97 in 10.0 mi Calm Calm - N/A   Clear
6:53 AM 19.9 °F - 18.0 °F 92% 30.00 in 10.0 mi Calm Calm - N/A   Clear
7:53 AM 12.9 °F - 10.0 °F 88% 30.04 in 10.0 mi Calm Calm - N/A   Clear
8:53 AM 18.0 °F 12.7 °F 16.0 °F 92% 30.04 in 10.0 mi NW 3.5 mph - N/A   Clear
9:53 AM 24.1 °F 17.0 °F 19.9 °F 84% 30.06 in 10.0 mi NNW 5.8 mph - N/A   Clear
10:53 AM 32.0 °F 24.8 °F 23.0 °F 69% 30.04 in 10.0 mi NNW 8.1 mph - N/A   Clear
11:53 AM 39.9 °F 35.1 °F 25.0 °F 55% 30.03 in 10.0 mi NNW 6.9 mph - N/A   Clear
12:53 PM 46.4 °F 41.9 °F 21.2 °F 37% 29.95 in 10.0 mi North 9.2 mph - N/A   Clear
1:53 PM 48.9 °F - 19.0 °F 31% 29.98 in 10.0 mi NE 6.9 mph - N/A   Clear
2:53 PM 46.9 °F - 21.0 °F 36% 29.98 in 10.0 mi ENE 5.8 mph - N/A   Clear
3:53 PM 48.0 °F - 19.9 °F 33% 29.98 in 10.0 mi East 6.9 mph - N/A   Clear
4:53 PM 42.8 °F 39.3 °F 21.2 °F 42% 29.93 in 10.0 mi ESE 5.8 mph - N/A   Clear
5:53 PM 36.0 °F 33.3 °F 21.0 °F 55% 30.01 in 10.0 mi East 3.5 mph - N/A   Clear
6:53 PM 25.0 °F - 19.0 °F 78% 30.03 in 10.0 mi Calm Calm - N/A   Clear
7:53 PM 24.1 °F - 18.0 °F 77% 30.04 in 10.0 mi Calm Calm - N/A   Clear
8:53 PM 23.0 °F - 17.1 °F 78% 30.01 in 10.0 mi Calm Calm - N/A   Clear
9:53 PM 21.0 °F - 16.0 °F 81% 30.00 in 10.0 mi Calm Calm - N/A   Clear
10:53 PM 16.0 °F - 12.9 °F 88% 29.99 in 10.0 mi Calm Calm - N/A   Clear
11:53 PM 16.0 °F - 12.0 °F 84% 29.97 in 10.0 mi Calm Calm - N/A   Clear